Sentabet | Judi Bola , Bandar Bola

Jackpot

Texas Poker Multi Jackpot System

Kini Telah hadir Jackpot SUPER ROYAL FLUSH

Kini Telah hadir Jackpot 2000 (khusus table VIP keatas).

Ikutilah global jackpot yang tersedia di system kami, dengan system jackpot terbaru dan pertama di indonesia, anda dapat membeli jackpot dengan harga 100 rupiah saja dan menangkan hadiahnya hingga puluhan juta rupiah.

Jackpot bukanlah suatu keharusan untuk dibeli, namun kami memberikan suatu fitur tambahan untuk member tercinta dari www.poker899.org.

Terdapat tiga pilihan harga jackpot yang bisa anda beli yaitu :100,500,1000 dan 2000(khusus table VIP Keatas) rupiah.

Hadiah dari Multi jackpot system www.poker899.org

  1. full house x 10 harga jackpot yang anda beli.
      (contoh:anda membeli 1000 maka:1000 X10 = 10.000)
  2. four of kind x 250 harga jackpot yang anda beli
      (contoh:anda membeli 1000 maka:1000 X250 = 250.000)
  3. Straight flush x 1200
      (contoh:anda membeli 1000 maka:1000 X1200 = 1.200.000)
  4. Royal flush x 10000 harga jackpot yang anda beli
      (contoh:anda membeli 1000 maka:1000 X10000 = 10.000.000)
  5. SUPER ROYAL FLUSH x 30000 harga jackpot yang anda beli
      (contoh:anda membeli 1000 maka:1000 X30000 = 30.000.000)

Kondisi kartu

  1. full house adalah kondisi kartu dimana kartu anda dan kartu tengah dengan total 7 kartu bisa mendapatkan nilai 5 kartu dengan kombinasi 1 tris(three of kind) dan 1 pair, contoh 3 kartu 10 dan 2 kartu 5
  2. Four of kind adalah kondisi kartu dimana kartu anda dan kartu tengah dengan total 7 kartu bisa mendapatkan nilai 5 kartu dengan kombinasi 4 kartu yang sama jumlah dan 1 kartu apapun juga contoh anda mendapatkan 4 buah kartu angka 3 dan 1 kartu apapun.
  3. Staright flush adalah kondisi kartu dimana kartu anda dan kartu tengah dengan total 7 kartu bisa mendapatkan nilai 5 kartu dengan kombinasi seri / staright dengan kembang yang sama contoh : urutan kartu dari angka 5, 6, 7, 8 , 9 10 dengan kembang yg sama misalnya as hati
  4. Royal flush adalah kondisi kartu dimana kartu anda dan kartu tengah dengan total 7 kartu bisa mendapatkan nilai 5 kartu dengan kombinasi seri / staright dengan kembang yang sama tetapi kartu tersebut haruslah dimulai dari 10. contoh 10, Queen, Jack, King dan aces dengan kembang yang sama
  5. Super Royal flush adalah kondisi kartu dimana Kedua kartu anda digabung dengan 3 kartu pertama meja haruslah royal flush. contoh kartu anda 10,Queen kembang sama dan 3 kartu pertama meja adalah Jack, King dan aces dengan kembang yang sama

Demikian adalah penjelasan dari Multi Jackpot www.poker899.org terima kasih dan selamat bermain salam hoki dari kami

Texas Poker Jackpot Winner

TOP SUPER ROYAL FLUSH
No.TanggalNamaPriceWin
124/01 13:52KINGJUICEMSuper Royal flush30,000,000
224/01 13:35WARRIOR_GSuper Royal flush3,000,000
324/01 12:22KAISAR234Super Royal flush15,000,000
424/01 07:55THEWALKERSuper Royal flush3,000,000
524/01 05:25WEDF2PFJSuper Royal flush3,000,000
TOP ROYAL FLUSH
No.TanggalNamaPriceWin
124/01 13:54DHUMM94Royal flush5,000,000
224/01 13:48CEKRoyal flush1,000,000
324/01 13:46RETAK212Royal flush5,000,000
424/01 13:06SUSI2711Royal flush5,000,000
524/01 12:19NASRIL86Royal flush1,000,000
TOP STRAIGHT FLUSH
No.TanggalNamaPriceWin
124/01 13:53SIKASEP115Straight Flush1,200,000
224/01 13:53ABADIABEStraight Flush1,200,000
324/01 13:53DAUZJO1Straight Flush1,200,000
424/01 13:53KOMANDO011Straight Flush120,000
524/01 13:51ANDALAS85Straight Flush120,000
LATEST JACKPOT
No.TanggalNamaPriceWin
124/01 13:56C_B_OFull House1,000
224/01 13:56REDESFull House10,000
324/01 13:56SOBRIN89Full House1,000
424/01 13:56FAFA81Full House1,000
524/01 13:56FATHAN06Full House1,000
624/01 13:56ADUL997Full House5,000
724/01 13:56TIANIFull House5,000
824/01 13:56W15N007Full House5,000
924/01 13:56BEPRA123Full House5,000
1024/01 13:56BPOFLH1639Full House5,000
1124/01 13:56QY9IOEI71BFull House5,000
1224/01 13:56AMALYFull House20,000
1324/01 13:56JUV3NTUS97Full House5,000
1424/01 13:56UTHE666Full House5,000
1524/01 13:56ENRYQEFull House10,000
1624/01 13:56R47UK7QIUFFull House5,000
1724/01 13:56CHURUTFull House5,000
1824/01 13:56DNR9Full House5,000
1924/01 13:56UMUSELBRENFull House10,000
2024/01 13:56RAGEL01Full House10,000
2124/01 13:56ROBIN06Full House1,000
2224/01 13:56CAC1233Full House1,000
2324/01 13:56CWQEVBSHA2Full House1,000
2424/01 13:56DOKQU86Full House5,000
2524/01 13:56M3DKB7NC6OFull House5,000
2624/01 13:55KOPEL80Four Of A Kind25,000
2724/01 13:55LOTOLOLFull House1,000
2824/01 13:55ESTOTO9Four Of A Kind25,000
2924/01 13:55SINYO26Full House1,000
3024/01 13:55BALKI14Full House5,000
3124/01 13:55SITU_6666Four Of A Kind250,000
3224/01 13:55UHUYYFull House5,000
3324/01 13:55DANIL676Full House1,000
3424/01 13:55ABULAISINFull House5,000
3524/01 13:55KIT999Full House1,000
3624/01 13:55AANKFMFull House1,000
3724/01 13:55RHEVA88Four Of A Kind125,000
3824/01 13:55NAGA1339Full House5,000
3924/01 13:55KACIEK46Full House5,000
4024/01 13:55MALAM321Full House10,000
4124/01 13:55JP1_JP1Full House20,000
4224/01 13:55AYAH66Full House10,000
4324/01 13:55LAHAN_8Full House1,000
4424/01 13:55PIMENGFull House5,000
4524/01 13:55X4VWVS267HFull House1,000
4624/01 13:55JINKAFIRFour Of A Kind25,000
4724/01 13:55TOPENGBALIFull House5,000
4824/01 13:55GOZI33Full House1,000
4924/01 13:55NIASANTIKAFull House1,000
5024/01 13:55ANTIK21Full House5,000

Domino Multi Jackpot System

Ikutilah global jackpot yang tersedia di system kami, dengan system jackpot terbaru dan pertama di indonesia, anda dapat membeli jackpot dengan harga 100 rupiah saja dan menangkan hadiahnya hingga puluhan juta rupiah.

Jackpot bukanlah suatu keharusan untuk dibeli, namun kami memberikan suatu fitur tambahan untuk member tercinta dari www.poker899.org.

Terdapat tiga pilihan harga jackpot yang bisa anda beli yaitu :100,500 dan 1000 rupiah.

Hadiah dari Multi jackpot system www.poker899.org

  1. Murni Kecil x 50 harga jackpot yang anda beli.
      (contoh:anda membeli 1000 maka:1000 X 50 = 50.000)
  2. Murni Besar x 50 harga jackpot yang anda beli
      (contoh:anda membeli 1000 maka:1000 X 50 = 50.000)
  3. BALAK x 100 harga jackpot yang anda beli
      (contoh:anda membeli 1000 maka:1000 X 100 = 100.000)
  4. ENAM DEWA x 6666 harga jackpot yang anda beli
      (contoh:anda membeli 1000 maka:1000 X 6666 = 6.666.000)

Demikian adalah penjelasan dari Multi Jackpot www.poker899.org terima kasih dan selamat bermain salam hoki dari kami

Domino Jackpot Winner

TOP ENAM DEWA
No.TanggalNamaPriceWin
124/01 05:28SULTN99murni enam6,666,000
224/01 04:08KITTY995murni enam666,600
324/01 00:16TEMPEKTUOmurni enam3,333,000
423/01 23:59TM7ZINATMJmurni enam6,666,000
523/01 23:50CROSSBACKmurni enam6,666,000
TOP BALAK
No.TanggalNamaPriceWin
124/01 13:53SYAMUEL197balak100,000
224/01 13:52WINFORME99balak10,000
324/01 13:48BETOKA89balak100,000
424/01 13:45JOKOSU21balak100,000
524/01 13:45UTOBAPAKbalak10,000
LATEST JACKPOT
No.TanggalNamaPriceWin
124/01 13:56NCEX201murni besar25,000
224/01 13:56POSAN99murni kecil25,000
324/01 13:56QIUMULUmurni kecil50,000
424/01 13:56KALACATmurni kecil5,000
524/01 13:55X7FK9E217Imurni besar25,000
624/01 13:53JEGER241murni kecil50,000
724/01 13:53CHILERRmurni kecil50,000
824/01 13:53DA6F17EBmurni kecil5,000
924/01 13:53SYAMUEL197balak100,000
1024/01 13:52WINFORME99balak10,000
1124/01 13:51APACHE13murni kecil50,000
1224/01 13:51SYAMUEL197murni besar50,000
1324/01 13:50MENAG12murni besar50,000
1424/01 13:50WIDA007murni besar5,000
1524/01 13:49WEN378APJYmurni besar5,000
1624/01 13:48BETOKA89balak100,000
1724/01 13:47CHILERRmurni kecil50,000
1824/01 13:47CENDANA04murni kecil50,000
1924/01 13:46NCEX201murni besar50,000
2024/01 13:46SABAR288murni kecil50,000
2124/01 13:46VHY86murni kecil50,000
2224/01 13:45JOKOSU21balak100,000
2324/01 13:45UTOBAPAKbalak10,000
2424/01 13:45QXYFE1XPHSmurni kecil25,000
2524/01 13:44SANAWINGmurni besar50,000
2624/01 13:43ALE378murni kecil25,000
2724/01 13:42COMPENY8murni besar25,000
2824/01 13:40NGELAGAImurni kecil5,000
2924/01 13:40BRAND23murni kecil50,000
3024/01 13:39DIKAVImurni besar50,000
3124/01 13:39LUGUA09murni besar50,000
3224/01 13:39AJAJmurni besar50,000
3324/01 13:39ZAFRAN69murni besar5,000
3424/01 13:38COMPENY8murni kecil25,000
3524/01 13:37WEN378APJYmurni kecil5,000
3624/01 13:37DAXUN66murni kecil25,000
3724/01 13:36FAD212murni besar25,000
3824/01 13:36POSAN99murni besar50,000
3924/01 13:35ABHYE88murni kecil25,000
4024/01 13:34ILYSM2208murni kecil50,000
4124/01 13:34PIRANG67murni besar25,000
4224/01 13:34ALE378balak50,000
4324/01 13:33JAN004murni kecil50,000
4424/01 13:33ILYSM2208murni kecil50,000
4524/01 13:33ODOObalak10,000
4624/01 13:31DDDDAmurni besar5,000
4724/01 13:31BROHENmurni kecil25,000
4824/01 13:31DANK_DANKmurni besar50,000
4924/01 13:31JHONANQYmurni kecil25,000
5024/01 13:31RZL63murni besar25,000

Ceme Multi Jackpot System

Jackpot dilihat dari gabungan kartu pemain dengan kartu bandar. Bandar harus membeli jackpot sebanyak jumlah player yang sedang duduk. Sebagai contoh bila terdapat 3 pemain duduk bermain, dan bandar memutuskan untuk membeli jackpot Rp 1.000, maka pada periode tersebut bandar akan membeli jackpot sebanyak 3xRp1.000 = Rp3.000.

Jackpot bukanlah suatu keharusan untuk dibeli, namun kami memberikan suatu fitur tambahan untuk member tercinta dari www.poker899.org.

Terdapat tiga pilihan harga jackpot yang bisa anda beli yaitu :100,500 dan 1000 rupiah.

Hadiah dari Multi jackpot system www.poker899.org

  1. Murni Kecil x 50 harga jackpot yang anda beli.
      (contoh:anda membeli 1000 maka:1000 X 50 = 50.000)
  2. Murni Besar x 50 harga jackpot yang anda beli
      (contoh:anda membeli 1000 maka:1000 X 50 = 50.000)
  3. BALAK x 200 harga jackpot yang anda beli
      (contoh:anda membeli 1000 maka:1000 X 200 = 200.000)
  4. ENAM DEWA x 6666 harga jackpot yang anda beli
      (contoh:anda membeli 1000 maka:1000 X 6666 = 6.666.000)

Demikian adalah penjelasan dari Multi Jackpot www.poker899.org terima kasih dan selamat bermain salam hoki dari kami

Ceme Jackpot Winner

TOP ENAM DEWA
No.TanggalNamaPriceWin
124/01 13:51NAGAUTARAmurni enam6,666,000
224/01 13:43UNANK6murni enam6,666,000
324/01 13:11SMS67murni enam666,600
424/01 12:18SONGJI01murni enam3,333,000
524/01 12:15DDANNmurni enam3,333,000
TOP BALAK
No.TanggalNamaPriceWin
124/01 13:56DOMAIN_1balak20,000
224/01 13:55HOKMAN99balak200,000
324/01 13:55ZENZA_9balak100,000
424/01 13:55BROKEEENNHbalak100,000
524/01 13:54WILLYZHUbalak20,000
LATEST JACKPOT
No.TanggalNamaPriceWin
124/01 13:56DOMAIN_1balak20,000
224/01 13:56CIPLING9murni kecil50,000
324/01 13:56DODI95murni kecil50,000
424/01 13:55BAPETNASmurni besar50,000
524/01 13:55HOKMAN99balak200,000
624/01 13:55HOKIPRET12murni kecil25,000
724/01 13:55ZENZA_9balak100,000
824/01 13:55BROKEEENNHbalak100,000
924/01 13:54GELUNG99murni kecil25,000
1024/01 13:54MUKINImurni kecil25,000
1124/01 13:54QPRITmurni kecil50,000
1224/01 13:54WUOOI07murni kecil50,000
1324/01 13:54MX7UY4OQA9murni kecil25,000
1424/01 13:54WIJOSENOmurni kecil50,000
1524/01 13:54WILLYZHUbalak20,000
1624/01 13:54VARIO111balak200,000
1724/01 13:54YOIBOS36murni kecil50,000
1824/01 13:53ZEBROSmurni kecil5,000
1924/01 13:53GOBEL13murni kecil50,000
2024/01 13:53KIKI1984murni kecil25,000
2124/01 13:53DOLBY45murni kecil5,000
2224/01 13:53ASROMA83murni kecil25,000
2324/01 13:53ARMAND04murni kecil50,000
2424/01 13:53AA3FC175murni kecil25,000
2524/01 13:52WIWAHA17balak20,000
2624/01 13:52OKLAY84balak200,000
2724/01 13:52GEDEAMATbalak20,000
2824/01 13:52DOLARAINGmurni besar50,000
2924/01 13:52FA3B615Cmurni kecil5,000
3024/01 13:52TUROX69murni besar50,000
3124/01 13:52DENTOL1987murni besar5,000
3224/01 13:52FITRYLUBISmurni kecil5,000
3324/01 13:52US5balak100,000
3424/01 13:51NAGAUTARAmurni enam6,666,000
3524/01 13:51XLUIWFGLZWmurni besar5,000
3624/01 13:51DODI95murni kecil50,000
3724/01 13:5199TERUSmurni kecil50,000
3824/01 13:51F58F85BCbalak200,000
3924/01 13:51HATED13balak100,000
4024/01 13:51D4D4D4murni kecil50,000
4124/01 13:51JESEN06balak20,000
4224/01 13:50DOMAIN_1balak20,000
4324/01 13:50MAJAN01balak200,000
4424/01 13:50FUCKER_murni kecil25,000
4524/01 13:50ARMAND04murni kecil50,000
4624/01 13:50AA3FC175murni kecil5,000
4724/01 13:50RANGGER77murni kecil25,000
4824/01 13:50SASUKE14murni kecil50,000
4924/01 13:50QAILA15balak200,000
5024/01 13:50ONGPOKERbalak200,000